Year,Month,Day,Hour,Minute,Value (Times are PST for temperature in C)
2021,12,07,00,00,-23.70
2021,12,07,00,01,-23.70
2021,12,07,00,02,-23.70
2021,12,07,00,03,-23.70
2021,12,07,00,04,-23.70
2021,12,07,00,05,-23.70
2021,12,07,00,06,-23.70
2021,12,07,00,07,-23.70
2021,12,07,00,08,-23.70
2021,12,07,00,09,-23.70
2021,12,07,00,10,-23.70
2021,12,07,00,11,-23.70
2021,12,07,00,12,-23.80
2021,12,07,00,13,-23.80
2021,12,07,00,14,-23.80
2021,12,07,00,15,-23.80
2021,12,07,00,16,-23.80
2021,12,07,00,17,-23.80
2021,12,07,00,18,-23.80
2021,12,07,00,19,-23.80
2021,12,07,00,20,-23.70
2021,12,07,00,21,-23.70
2021,12,07,00,22,-23.70
2021,12,07,00,23,-23.70
2021,12,07,00,24,-23.70
2021,12,07,00,25,-23.70
2021,12,07,00,26,-23.70
2021,12,07,00,27,-23.70
2021,12,07,00,28,-23.70
2021,12,07,00,29,-23.70
2021,12,07,00,30,-23.70
2021,12,07,00,31,-23.70
2021,12,07,00,32,-23.70
2021,12,07,00,33,-23.70
2021,12,07,00,34,-23.70
2021,12,07,00,35,-23.70
2021,12,07,00,36,-23.70
2021,12,07,00,37,-23.70
2021,12,07,00,38,-23.70
2021,12,07,00,39,-23.70
2021,12,07,00,40,-23.70
2021,12,07,00,41,-23.70
2021,12,07,00,42,-23.70
2021,12,07,00,43,-23.70
2021,12,07,00,44,-23.70
2021,12,07,00,45,-23.70
2021,12,07,00,46,-23.70
2021,12,07,00,47,-23.70
2021,12,07,00,48,-23.70
2021,12,07,00,49,-23.70
2021,12,07,00,50,-23.70
2021,12,07,00,51,-23.70
2021,12,07,00,52,-23.70
2021,12,07,00,53,-23.60
2021,12,07,00,54,-23.60
2021,12,07,00,55,-23.60
2021,12,07,00,56,-23.60
2021,12,07,00,57,-23.60
2021,12,07,00,58,-23.60
2021,12,07,00,59,-23.60
2021,12,07,01,00,-23.50
2021,12,07,01,01,-23.50
2021,12,07,01,02,-23.50
2021,12,07,01,03,-23.50
2021,12,07,01,04,-23.50
2021,12,07,01,05,-23.50
2021,12,07,01,06,-23.50
2021,12,07,01,07,-23.50
2021,12,07,01,08,-23.50
2021,12,07,01,09,-23.50
2021,12,07,01,10,-23.50
2021,12,07,01,11,-23.50
2021,12,07,01,12,-23.50
2021,12,07,01,13,-23.50
2021,12,07,01,14,-23.50
2021,12,07,01,15,-23.50
2021,12,07,01,16,-23.50
2021,12,07,01,17,-23.50
2021,12,07,01,18,-23.50
2021,12,07,01,19,-23.50
2021,12,07,01,20,-23.40
2021,12,07,01,21,-23.40
2021,12,07,01,22,-23.40
2021,12,07,01,23,-23.40
2021,12,07,01,24,-23.40
2021,12,07,01,25,-23.40
2021,12,07,01,26,-23.40
2021,12,07,01,27,-23.40
2021,12,07,01,28,-23.40
2021,12,07,01,29,-23.40
2021,12,07,01,30,-23.40
2021,12,07,01,31,-23.40
2021,12,07,01,32,-23.40
2021,12,07,01,33,-23.40
2021,12,07,01,34,-23.40
2021,12,07,01,35,-23.40
2021,12,07,01,36,-23.40
2021,12,07,01,37,-23.40
2021,12,07,01,38,-23.40
2021,12,07,01,39,-23.40
2021,12,07,01,40,-23.40
2021,12,07,01,41,-23.40
2021,12,07,01,42,-23.40
2021,12,07,01,43,-23.40
2021,12,07,01,44,-23.40
2021,12,07,01,45,-23.40
2021,12,07,01,46,-23.40
2021,12,07,01,47,-23.40
2021,12,07,01,48,-23.40
2021,12,07,01,49,-23.40
2021,12,07,01,50,-23.40
2021,12,07,01,51,-23.40
2021,12,07,01,52,-23.40
2021,12,07,01,53,-23.40
2021,12,07,01,54,-23.40
2021,12,07,01,55,-23.40
2021,12,07,01,56,-23.40
2021,12,07,01,57,-23.40
2021,12,07,01,58,-23.40
2021,12,07,01,59,-23.40
2021,12,07,02,00,-23.40
2021,12,07,02,01,-23.40
2021,12,07,02,02,-23.40
2021,12,07,02,03,-23.30
2021,12,07,02,04,-23.30
2021,12,07,02,05,-23.30
2021,12,07,02,06,-23.30
2021,12,07,02,07,-23.30
2021,12,07,02,08,-23.30
2021,12,07,02,09,-23.30
2021,12,07,02,10,-23.30
2021,12,07,02,11,-23.30
2021,12,07,02,12,-23.30
2021,12,07,02,13,-23.30
2021,12,07,02,14,-23.30
2021,12,07,02,15,-23.30
2021,12,07,02,16,-23.30
2021,12,07,02,17,-23.30
2021,12,07,02,18,-23.30
2021,12,07,02,19,-23.30
2021,12,07,02,20,-23.30
2021,12,07,02,21,-23.30
2021,12,07,02,22,-23.30
2021,12,07,02,23,-23.30
2021,12,07,02,24,-23.30
2021,12,07,02,25,-23.30
2021,12,07,02,26,-23.30
2021,12,07,02,27,-23.20
2021,12,07,02,28,-23.20
2021,12,07,02,29,-23.20
2021,12,07,02,30,-23.20
2021,12,07,02,31,-23.20
2021,12,07,02,32,-23.20
2021,12,07,02,33,-23.20
2021,12,07,02,34,-23.20
2021,12,07,02,35,-23.20
2021,12,07,02,36,-23.20
2021,12,07,02,37,-23.20
2021,12,07,02,38,-23.20
2021,12,07,02,39,-23.10
2021,12,07,02,40,-23.10
2021,12,07,02,41,-23.10
2021,12,07,02,42,-23.10
2021,12,07,02,43,-23.10
2021,12,07,02,44,-23.10
2021,12,07,02,45,-23.10
2021,12,07,02,46,-23.10
2021,12,07,02,47,-23.10
2021,12,07,02,48,-23.10
2021,12,07,02,49,-23.10
2021,12,07,02,50,-23.10
2021,12,07,02,51,-23.10
2021,12,07,02,52,-23.10
2021,12,07,02,53,-23.10
2021,12,07,02,54,-23.10
2021,12,07,02,55,-23.10
2021,12,07,02,56,-23.10
2021,12,07,02,57,-23.10
2021,12,07,02,58,-23.10
2021,12,07,02,59,-23.00
2021,12,07,03,00,-23.00
2021,12,07,03,01,-23.00
2021,12,07,03,02,-23.00
2021,12,07,03,03,-23.00
2021,12,07,03,04,-22.90
2021,12,07,03,05,-22.90
2021,12,07,03,06,-22.90
2021,12,07,03,07,-22.90
2021,12,07,03,08,-22.90
2021,12,07,03,09,-22.90
2021,12,07,03,10,-22.90
2021,12,07,03,11,-22.90
2021,12,07,03,12,-22.90
2021,12,07,03,13,-22.90
2021,12,07,03,14,-22.90
2021,12,07,03,15,-22.90
2021,12,07,03,16,-22.90
2021,12,07,03,17,-22.80
2021,12,07,03,18,-22.80
2021,12,07,03,19,-22.80
2021,12,07,03,20,-22.80
2021,12,07,03,21,-22.80
2021,12,07,03,22,-22.80
2021,12,07,03,23,-22.80
2021,12,07,03,24,-22.80
2021,12,07,03,25,-22.80
2021,12,07,03,26,-22.80
2021,12,07,03,27,-22.80
2021,12,07,03,28,-22.80
2021,12,07,03,29,-22.80
2021,12,07,03,30,-22.80
2021,12,07,03,31,-22.80
2021,12,07,03,32,-22.80
2021,12,07,03,33,-22.80
2021,12,07,03,34,-22.80
2021,12,07,03,35,-22.80
2021,12,07,03,36,-22.80
2021,12,07,03,37,-22.80
2021,12,07,03,38,-22.80
2021,12,07,03,39,-22.80
2021,12,07,03,40,-22.80
2021,12,07,03,41,-22.80
2021,12,07,03,42,-22.80
2021,12,07,03,43,-22.80
2021,12,07,03,44,-22.80
2021,12,07,03,45,-22.80
2021,12,07,03,46,-22.80
2021,12,07,03,47,-22.80
2021,12,07,03,48,-22.80
2021,12,07,03,49,-22.80
2021,12,07,03,50,-22.80
2021,12,07,03,51,-22.80
2021,12,07,03,52,-22.80
2021,12,07,03,53,-22.80
2021,12,07,03,54,-22.80
2021,12,07,03,55,-22.80
2021,12,07,03,56,-22.80
2021,12,07,03,57,-22.80
2021,12,07,03,58,-22.80
2021,12,07,03,59,-22.80
2021,12,07,04,00,-22.80
2021,12,07,04,01,-22.80
2021,12,07,04,02,-22.80
2021,12,07,04,03,-22.80
2021,12,07,04,04,-22.80
2021,12,07,04,05,-22.80
2021,12,07,04,06,-22.80
2021,12,07,04,07,-22.80
2021,12,07,04,08,-22.80
2021,12,07,04,09,-22.80
2021,12,07,04,10,-22.80
2021,12,07,04,11,-22.80
2021,12,07,04,12,-22.80
2021,12,07,04,13,-22.70
2021,12,07,04,14,-22.70
2021,12,07,04,15,-22.70
2021,12,07,04,16,-22.70
2021,12,07,04,17,-22.70
2021,12,07,04,18,-22.70
2021,12,07,04,19,-22.70
2021,12,07,04,20,-22.70
2021,12,07,04,21,-22.70
2021,12,07,04,22,-22.70
2021,12,07,04,23,-22.70
2021,12,07,04,24,-22.70
2021,12,07,04,25,-22.70
2021,12,07,04,26,-22.70
2021,12,07,04,27,-22.70
2021,12,07,04,28,-22.70
2021,12,07,04,29,-22.70
2021,12,07,04,30,-22.70
2021,12,07,04,31,-22.70
2021,12,07,04,32,-22.70
2021,12,07,04,33,-22.70
2021,12,07,04,34,-22.70
2021,12,07,04,35,-22.70
2021,12,07,04,36,-22.70
2021,12,07,04,37,-22.70
2021,12,07,04,38,-22.70
2021,12,07,04,39,-22.70
2021,12,07,04,40,-22.70
2021,12,07,04,41,-22.70
2021,12,07,04,42,-22.70
2021,12,07,04,43,-22.70
2021,12,07,04,44,-22.70
2021,12,07,04,45,-22.70
2021,12,07,04,46,-22.70
2021,12,07,04,47,-22.70
2021,12,07,04,48,-22.70
2021,12,07,04,49,-22.70
2021,12,07,04,50,-22.70
2021,12,07,04,51,-22.70
2021,12,07,04,52,-22.70
2021,12,07,04,53,-22.70
2021,12,07,04,54,-22.70
2021,12,07,04,55,-22.70
2021,12,07,04,56,-22.60
2021,12,07,04,57,-22.60
2021,12,07,04,58,-22.60
2021,12,07,04,59,-22.60
2021,12,07,05,00,-22.60
2021,12,07,05,01,-22.60
2021,12,07,05,02,-22.60
2021,12,07,05,03,-22.60
2021,12,07,05,04,-22.60
2021,12,07,05,05,-22.60
2021,12,07,05,06,-22.60
2021,12,07,05,07,-22.60
2021,12,07,05,08,-22.60
2021,12,07,05,09,-22.50
2021,12,07,05,10,-22.50
2021,12,07,05,11,-22.50
2021,12,07,05,12,-22.60
2021,12,07,05,13,-22.60
2021,12,07,05,14,-22.60
2021,12,07,05,15,-22.60
2021,12,07,05,16,-22.60
2021,12,07,05,17,-22.60
2021,12,07,05,18,-22.60
2021,12,07,05,19,-22.60
2021,12,07,05,20,-22.60
2021,12,07,05,21,-22.50
2021,12,07,05,22,-22.60
2021,12,07,05,23,-22.60
2021,12,07,05,24,-22.60
2021,12,07,05,25,-22.60
2021,12,07,05,26,-22.60
2021,12,07,05,27,-22.50
2021,12,07,05,28,-22.50
2021,12,07,05,29,-22.50
2021,12,07,05,30,-22.50
2021,12,07,05,31,-22.50
2021,12,07,05,32,-22.50
2021,12,07,05,33,-22.60
2021,12,07,05,34,-22.50
2021,12,07,05,35,-22.50
2021,12,07,05,36,-22.50
2021,12,07,05,37,-22.50
2021,12,07,05,38,-22.50
2021,12,07,05,39,-22.50
2021,12,07,05,40,-22.50
2021,12,07,05,41,-22.50
2021,12,07,05,42,-22.50
2021,12,07,05,43,-22.50
2021,12,07,05,44,-22.50
2021,12,07,05,45,-22.50
2021,12,07,05,46,-22.50
2021,12,07,05,47,-22.50
2021,12,07,05,48,-22.50
2021,12,07,05,49,-22.50
2021,12,07,05,50,-22.50
2021,12,07,05,51,-22.50
2021,12,07,05,52,-22.50
2021,12,07,05,53,-22.50
2021,12,07,05,54,-22.50
2021,12,07,05,55,-22.50
2021,12,07,05,56,-22.50
2021,12,07,05,57,-22.50
2021,12,07,05,58,-22.50
2021,12,07,05,59,-22.50
2021,12,07,06,00,-22.50
2021,12,07,06,01,-22.50
2021,12,07,06,02,-22.50
2021,12,07,06,03,-22.50
2021,12,07,06,04,-22.50
2021,12,07,06,05,-22.50
2021,12,07,06,06,-22.50
2021,12,07,06,07,-22.50
2021,12,07,06,08,-22.50
2021,12,07,06,09,-22.50
2021,12,07,06,10,-22.50
2021,12,07,06,11,-22.50
2021,12,07,06,12,-22.50
2021,12,07,06,13,-22.50
2021,12,07,06,14,-22.50
2021,12,07,06,15,-22.50
2021,12,07,06,16,-22.50
2021,12,07,06,17,-22.50
2021,12,07,06,18,-22.50
2021,12,07,06,19,-22.50
2021,12,07,06,20,-22.50
2021,12,07,06,21,-22.50
2021,12,07,06,22,-22.50
2021,12,07,06,23,-22.50
2021,12,07,06,24,-22.50
2021,12,07,06,25,-22.50
2021,12,07,06,26,-22.50
2021,12,07,06,27,-22.50
2021,12,07,06,28,-22.50
2021,12,07,06,29,-22.50
2021,12,07,06,30,-22.50
2021,12,07,06,31,-22.50
2021,12,07,06,32,-22.50
2021,12,07,06,33,-22.50
2021,12,07,06,34,-22.40
2021,12,07,06,35,-22.40
2021,12,07,06,36,-22.40
2021,12,07,06,37,-22.40
2021,12,07,06,38,-22.40
2021,12,07,06,39,-22.40
2021,12,07,06,40,-22.40
2021,12,07,06,41,-22.40
2021,12,07,06,42,-22.40
2021,12,07,06,43,-22.40
2021,12,07,06,44,-22.40
2021,12,07,06,45,-22.40
2021,12,07,06,46,-22.40
2021,12,07,06,47,-22.40
2021,12,07,06,48,-22.40
2021,12,07,06,49,-22.40
2021,12,07,06,50,-22.40
2021,12,07,06,51,-22.40
2021,12,07,06,52,-22.40
2021,12,07,06,53,-22.40
2021,12,07,06,54,-22.40
2021,12,07,06,55,-22.40
2021,12,07,06,56,-22.40
2021,12,07,06,57,-22.30
2021,12,07,06,58,-22.30
2021,12,07,06,59,-22.30
2021,12,07,07,00,-22.30
2021,12,07,07,01,-22.30
2021,12,07,07,02,-22.30
2021,12,07,07,03,-22.30
2021,12,07,07,04,-22.30
2021,12,07,07,05,-22.30
2021,12,07,07,06,-22.30
2021,12,07,07,07,-22.30
2021,12,07,07,08,-22.30
2021,12,07,07,09,-22.20
2021,12,07,07,10,-22.20
2021,12,07,07,11,-22.20
2021,12,07,07,12,-22.20
2021,12,07,07,13,-22.20
2021,12,07,07,14,-22.20
2021,12,07,07,15,-22.20
2021,12,07,07,16,-22.20
2021,12,07,07,17,-22.20
2021,12,07,07,18,-22.20
2021,12,07,07,19,-22.20
2021,12,07,07,20,-22.20
2021,12,07,07,21,-22.20
2021,12,07,07,22,-22.20
2021,12,07,07,23,-22.10
2021,12,07,07,24,-22.10
2021,12,07,07,25,-22.10
2021,12,07,07,26,-22.10
2021,12,07,07,27,-22.10
2021,12,07,07,28,-22.10
2021,12,07,07,29,-22.10
2021,12,07,07,30,-22.10
2021,12,07,07,31,-22.10
2021,12,07,07,32,-22.00
2021,12,07,07,33,-22.00
2021,12,07,07,34,-22.00
2021,12,07,07,35,-22.00
2021,12,07,07,36,-22.00
2021,12,07,07,37,-22.00
2021,12,07,07,38,-22.00
2021,12,07,07,39,-21.90
2021,12,07,07,40,-21.90
2021,12,07,07,41,-21.90
2021,12,07,07,42,-21.90
2021,12,07,07,43,-21.90
2021,12,07,07,44,-21.90
2021,12,07,07,45,-21.90
2021,12,07,07,46,-21.90
2021,12,07,07,47,-21.90
2021,12,07,07,48,-21.90
2021,12,07,07,49,-21.90
2021,12,07,07,50,-21.90
2021,12,07,07,51,-21.90
2021,12,07,07,52,-21.90
2021,12,07,07,53,-21.90
2021,12,07,07,54,-21.90
2021,12,07,07,55,-21.90
2021,12,07,07,56,-21.90
2021,12,07,07,57,-21.90
2021,12,07,07,58,-21.90
2021,12,07,07,59,-21.90
2021,12,07,08,00,-21.90
2021,12,07,08,01,-21.90
2021,12,07,08,02,-21.90
2021,12,07,08,03,-21.90
2021,12,07,08,04,-21.90
2021,12,07,08,05,-21.90
2021,12,07,08,06,-21.90
2021,12,07,08,07,-21.90
2021,12,07,08,08,-21.90
2021,12,07,08,09,-21.90
2021,12,07,08,10,-21.90
2021,12,07,08,11,-21.90
2021,12,07,08,12,-21.90
2021,12,07,08,13,-21.90
2021,12,07,08,14,-21.90
2021,12,07,08,15,-21.90
2021,12,07,08,16,-21.90
2021,12,07,08,17,-21.90
2021,12,07,08,18,-21.90
2021,12,07,08,19,-21.90
2021,12,07,08,20,-21.90
2021,12,07,08,21,-21.90
2021,12,07,08,22,-21.90
2021,12,07,08,23,-21.90
2021,12,07,08,24,-21.80
2021,12,07,08,25,-21.80
2021,12,07,08,26,-21.80
2021,12,07,08,27,-21.80
2021,12,07,08,28,-21.80
2021,12,07,08,29,-21.80
2021,12,07,08,30,-21.80
2021,12,07,08,31,-21.80
2021,12,07,08,32,-21.80
2021,12,07,08,33,-21.80
2021,12,07,08,34,-21.70
2021,12,07,08,35,-21.70
2021,12,07,08,36,-21.70
2021,12,07,08,37,-21.70
2021,12,07,08,38,-21.70
2021,12,07,08,39,-21.70
2021,12,07,08,40,-21.70
2021,12,07,08,41,-21.70
2021,12,07,08,42,-21.70
2021,12,07,08,43,-21.70
2021,12,07,08,44,-21.70
2021,12,07,08,45,-21.70
2021,12,07,08,46,-21.70
2021,12,07,08,47,-21.60
2021,12,07,08,48,-21.70
2021,12,07,08,49,-21.60
2021,12,07,08,50,-21.60
2021,12,07,08,51,-21.70
2021,12,07,08,52,-21.70
2021,12,07,08,53,-21.70
2021,12,07,08,54,-21.70
2021,12,07,08,55,-21.70
2021,12,07,08,56,-21.70
2021,12,07,08,57,-21.70
2021,12,07,08,58,-21.70
2021,12,07,08,59,-21.70
2021,12,07,09,00,-21.70
2021,12,07,09,01,-21.70
2021,12,07,09,02,-21.70
2021,12,07,09,03,-21.70
2021,12,07,09,04,-21.70
2021,12,07,09,05,-21.70
2021,12,07,09,06,-21.70
2021,12,07,09,07,-21.70
2021,12,07,09,08,-21.70
2021,12,07,09,09,-21.70
2021,12,07,09,10,-21.70
2021,12,07,09,11,-21.70
2021,12,07,09,12,-21.70
2021,12,07,09,13,-21.70
2021,12,07,09,14,-21.70
2021,12,07,09,15,-21.70
2021,12,07,09,16,-21.70
2021,12,07,09,17,-21.70
2021,12,07,09,18,-21.70
2021,12,07,09,19,-21.70
2021,12,07,09,20,-21.70
2021,12,07,09,21,-21.70
2021,12,07,09,22,-21.70
2021,12,07,09,23,-21.60
2021,12,07,09,24,-21.60
2021,12,07,09,25,-21.60
2021,12,07,09,26,-21.60
2021,12,07,09,27,-21.60
2021,12,07,09,28,-21.60
2021,12,07,09,29,-21.60
2021,12,07,09,30,-21.50
2021,12,07,09,31,-21.50
2021,12,07,09,32,-21.50
2021,12,07,09,33,-21.50
2021,12,07,09,34,-21.40
2021,12,07,09,35,-21.40
2021,12,07,09,36,-21.40
2021,12,07,09,37,-21.40
2021,12,07,09,38,-21.40
2021,12,07,09,39,-21.40
2021,12,07,09,40,-21.40
2021,12,07,09,41,-21.40
2021,12,07,09,42,-21.30
2021,12,07,09,43,-21.30
2021,12,07,09,44,-21.30
2021,12,07,09,45,-21.30
2021,12,07,09,46,-21.30
2021,12,07,09,47,-21.30
2021,12,07,09,48,-21.30
2021,12,07,09,49,-21.30
2021,12,07,09,50,-21.30
2021,12,07,09,51,-21.30
2021,12,07,09,52,-21.30
2021,12,07,09,53,-21.30
2021,12,07,09,54,-21.30
2021,12,07,09,55,-21.30
2021,12,07,09,56,-21.30
2021,12,07,09,57,-21.30
2021,12,07,09,58,-21.30
2021,12,07,09,59,-21.30
2021,12,07,10,00,-21.30
2021,12,07,10,01,-21.30
2021,12,07,10,02,-21.30
2021,12,07,10,03,-21.30
2021,12,07,10,04,-21.30
2021,12,07,10,05,-21.30
2021,12,07,10,06,-21.30
2021,12,07,10,07,-21.30
2021,12,07,10,08,-21.30
2021,12,07,10,09,-21.30
2021,12,07,10,10,-21.30
2021,12,07,10,11,-21.30
2021,12,07,10,12,-21.30
2021,12,07,10,13,-21.30
2021,12,07,10,14,-21.30
2021,12,07,10,15,-21.30
2021,12,07,10,16,-21.30
2021,12,07,10,17,-21.30
2021,12,07,10,18,-21.20
2021,12,07,10,19,-21.20
2021,12,07,10,20,-21.20
2021,12,07,10,21,-21.20
2021,12,07,10,22,-21.20
2021,12,07,10,23,-21.20
2021,12,07,10,24,-21.20
2021,12,07,10,25,-21.20
2021,12,07,10,26,-21.20
2021,12,07,10,27,-21.20
2021,12,07,10,28,-21.20
2021,12,07,10,29,-21.20
2021,12,07,10,30,-21.20
2021,12,07,10,31,-21.20
2021,12,07,10,32,-21.20
2021,12,07,10,33,-21.20
2021,12,07,10,34,-21.20
2021,12,07,10,35,-21.20
2021,12,07,10,36,-21.20
2021,12,07,10,37,-21.20
2021,12,07,10,38,-21.20
2021,12,07,10,39,-21.20
2021,12,07,10,40,-21.20
2021,12,07,10,41,-21.20
2021,12,07,10,42,-21.20
2021,12,07,10,43,-21.20
2021,12,07,10,44,-21.20
2021,12,07,10,45,-21.20
2021,12,07,10,46,-21.20
2021,12,07,10,47,-21.20
2021,12,07,10,48,-21.20
2021,12,07,10,49,-21.20
2021,12,07,10,50,-21.20
2021,12,07,10,51,-21.20
2021,12,07,10,52,-21.20
2021,12,07,10,53,-21.10
2021,12,07,10,54,-21.10
2021,12,07,10,55,-21.10
2021,12,07,10,56,-21.10
2021,12,07,10,57,-21.10
2021,12,07,10,58,-21.10
2021,12,07,10,59,-21.10
2021,12,07,11,00,-21.10
2021,12,07,11,01,-21.10
2021,12,07,11,02,-21.00
2021,12,07,11,03,-21.00
2021,12,07,11,04,-21.00
2021,12,07,11,05,-21.00
2021,12,07,11,06,-21.00
2021,12,07,11,07,-21.00
2021,12,07,11,08,-21.00
2021,12,07,11,09,-21.00
2021,12,07,11,10,-21.00
2021,12,07,11,11,-21.00
2021,12,07,11,12,-21.00
2021,12,07,11,13,-21.00
2021,12,07,11,14,-20.90
2021,12,07,11,15,-20.90
2021,12,07,11,16,-20.90
2021,12,07,11,17,-20.90
2021,12,07,11,18,-20.90
2021,12,07,11,19,-20.90
2021,12,07,11,20,-20.90
2021,12,07,11,21,-20.90
2021,12,07,11,22,-20.90
2021,12,07,11,23,-20.90
2021,12,07,11,24,-20.90
2021,12,07,11,25,-20.90
2021,12,07,11,26,-20.90
2021,12,07,11,27,-20.90
2021,12,07,11,28,-20.90
2021,12,07,11,29,-20.90
2021,12,07,11,30,-20.90
2021,12,07,11,31,-20.90
2021,12,07,11,32,-20.90
2021,12,07,11,33,-20.90
2021,12,07,11,34,-20.90
2021,12,07,11,35,-20.90
2021,12,07,11,36,-20.90
2021,12,07,11,37,-20.90
2021,12,07,11,38,-20.90
2021,12,07,11,39,-20.90
2021,12,07,11,40,-20.90
2021,12,07,11,41,-20.90
2021,12,07,11,42,-20.90
2021,12,07,11,43,-20.90
2021,12,07,11,44,-20.90
2021,12,07,11,45,-20.90
2021,12,07,11,46,-20.90
2021,12,07,11,47,-20.90
2021,12,07,11,48,-20.90
2021,12,07,11,49,-20.90
2021,12,07,11,50,-20.90
2021,12,07,11,51,-20.90
2021,12,07,11,52,-20.90
2021,12,07,11,53,-20.90
2021,12,07,11,54,-20.90
2021,12,07,11,55,-20.90
2021,12,07,11,56,-20.90
2021,12,07,11,57,-20.90
2021,12,07,11,58,-20.90
2021,12,07,11,59,-20.90
2021,12,07,12,00,-20.90
2021,12,07,12,01,-20.90
2021,12,07,12,02,-20.90
2021,12,07,12,03,-20.90
2021,12,07,12,04,-20.80
2021,12,07,12,05,-20.80
2021,12,07,12,06,-20.80
2021,12,07,12,07,-20.80
2021,12,07,12,08,-20.80
2021,12,07,12,09,-20.80
2021,12,07,12,10,-20.80
2021,12,07,12,11,-20.80
2021,12,07,12,12,-20.80
2021,12,07,12,13,-20.80
2021,12,07,12,14,-20.80
2021,12,07,12,15,-20.80
2021,12,07,12,16,-20.80
2021,12,07,12,17,-20.80
2021,12,07,12,18,-20.80
2021,12,07,12,19,-20.80
2021,12,07,12,20,-20.80
2021,12,07,12,21,-20.70
2021,12,07,12,22,-20.70
2021,12,07,12,23,-20.70
2021,12,07,12,24,-20.70
2021,12,07,12,25,-20.70
2021,12,07,12,26,-20.70
2021,12,07,12,27,-20.70
2021,12,07,12,28,-20.70
2021,12,07,12,29,-20.70
2021,12,07,12,30,-20.70
2021,12,07,12,31,-20.70
2021,12,07,12,32,-20.70
2021,12,07,12,33,-20.70
2021,12,07,12,34,-20.70
2021,12,07,12,35,-20.60
2021,12,07,12,36,-20.60
2021,12,07,12,37,-20.60
2021,12,07,12,38,-20.60
2021,12,07,12,39,-20.60
2021,12,07,12,40,-20.60
2021,12,07,12,41,-20.60
2021,12,07,12,42,-20.60
2021,12,07,12,43,-20.60
2021,12,07,12,44,-20.60
2021,12,07,12,45,-20.60
2021,12,07,12,46,-20.60
2021,12,07,12,47,-20.60
2021,12,07,12,48,-20.50
2021,12,07,12,49,-20.50
2021,12,07,12,50,-20.50
2021,12,07,12,51,-20.50
2021,12,07,12,52,-20.50
2021,12,07,12,53,-20.60
2021,12,07,12,54,-20.60
2021,12,07,12,55,-20.60
2021,12,07,12,56,-20.60
2021,12,07,12,57,-20.60
2021,12,07,12,58,-20.60
2021,12,07,12,59,-20.60
2021,12,07,13,00,-20.60
2021,12,07,13,01,-20.60
2021,12,07,13,02,-20.70
2021,12,07,13,03,-20.70
2021,12,07,13,04,-20.70
2021,12,07,13,05,-20.70
2021,12,07,13,06,-20.70
2021,12,07,13,07,-20.70
2021,12,07,13,08,-20.70
2021,12,07,13,09,-20.70
2021,12,07,13,10,-20.70
2021,12,07,13,11,-20.70
2021,12,07,13,12,-20.70
2021,12,07,13,13,-20.60
2021,12,07,13,14,-20.60
2021,12,07,13,15,-20.60
2021,12,07,13,16,-20.60
2021,12,07,13,17,-20.60
2021,12,07,13,18,-20.60
2021,12,07,13,19,-20.60
2021,12,07,13,20,-20.60
2021,12,07,13,21,-20.60
2021,12,07,13,22,-20.60
2021,12,07,13,23,-20.60
2021,12,07,13,24,-20.60
2021,12,07,13,25,-20.60
2021,12,07,13,26,-20.60
2021,12,07,13,27,-20.60
2021,12,07,13,28,-20.60
2021,12,07,13,29,-20.60
2021,12,07,13,30,-20.50
2021,12,07,13,31,-20.50
2021,12,07,13,32,-20.50
2021,12,07,13,33,-20.50
2021,12,07,13,34,-20.50
2021,12,07,13,35,-20.50
2021,12,07,13,36,-20.50
2021,12,07,13,37,-20.50
2021,12,07,13,38,-20.50
2021,12,07,13,39,-20.50
2021,12,07,13,40,-20.50
2021,12,07,13,41,-20.50
2021,12,07,13,42,-20.50
2021,12,07,13,43,-20.40
2021,12,07,13,44,-20.40
2021,12,07,13,45,-20.40
2021,12,07,13,46,-20.40
2021,12,07,13,47,-20.40
2021,12,07,13,48,-20.40
2021,12,07,13,49,-20.40
2021,12,07,13,50,-20.40
2021,12,07,13,51,-20.40
2021,12,07,13,52,-20.40
2021,12,07,13,53,-20.40
2021,12,07,13,54,-20.30
2021,12,07,13,55,-20.30
2021,12,07,13,56,-20.30
2021,12,07,13,57,-20.30
2021,12,07,13,58,-20.30
2021,12,07,13,59,-20.30
2021,12,07,14,00,-20.30
2021,12,07,14,01,-20.30
2021,12,07,14,02,-20.30
2021,12,07,14,03,-20.30
2021,12,07,14,04,-20.30
2021,12,07,14,05,-20.30
2021,12,07,14,06,-20.30
2021,12,07,14,07,-20.30
2021,12,07,14,08,-20.30
2021,12,07,14,09,-20.20
2021,12,07,14,10,-20.20
2021,12,07,14,11,-20.20
2021,12,07,14,12,-20.20
2021,12,07,14,13,-20.20
2021,12,07,14,14,-20.20
2021,12,07,14,15,-20.20
2021,12,07,14,16,-20.20
2021,12,07,14,17,-20.20
2021,12,07,14,18,-20.20
2021,12,07,14,19,-20.20
2021,12,07,14,20,-20.20
2021,12,07,14,21,-20.20
2021,12,07,14,22,-20.20
2021,12,07,14,23,-20.20
2021,12,07,14,24,-20.20
2021,12,07,14,25,-20.20
2021,12,07,14,26,-20.20
2021,12,07,14,27,-20.20
2021,12,07,14,28,-20.20
2021,12,07,14,29,-20.20
2021,12,07,14,30,-20.20
2021,12,07,14,31,-20.20
2021,12,07,14,32,-20.10
2021,12,07,14,33,-20.20
2021,12,07,14,34,-20.10
2021,12,07,14,35,-20.10
2021,12,07,14,36,-20.10
2021,12,07,14,37,-20.10
2021,12,07,14,38,-20.10
2021,12,07,14,39,-20.10
2021,12,07,14,40,-20.10
2021,12,07,14,41,-20.10
2021,12,07,14,42,-20.10
2021,12,07,14,43,-20.10
2021,12,07,14,44,-20.10
2021,12,07,14,45,-20.10
2021,12,07,14,46,-20.00
2021,12,07,14,47,-20.00
2021,12,07,14,48,-20.00
2021,12,07,14,49,-20.00
2021,12,07,14,50,-20.00
2021,12,07,14,51,-20.00
2021,12,07,14,52,-20.00
2021,12,07,14,53,-20.10
2021,12,07,14,54,-20.00
2021,12,07,14,55,-20.00
2021,12,07,14,56,-20.00
2021,12,07,14,57,-20.00
2021,12,07,14,58,-20.00
2021,12,07,14,59,-20.00
2021,12,07,15,00,-20.00
2021,12,07,15,01,-20.00
2021,12,07,15,02,-20.00
2021,12,07,15,03,-20.00
2021,12,07,15,04,-20.00
2021,12,07,15,05,-20.00
2021,12,07,15,06,-20.00
2021,12,07,15,07,-20.00
2021,12,07,15,08,-20.00
2021,12,07,15,09,-20.00
2021,12,07,15,10,-20.00
2021,12,07,15,11,-20.00
2021,12,07,15,12,-19.90
2021,12,07,15,13,-19.90
2021,12,07,15,14,-19.90
2021,12,07,15,15,-19.90
2021,12,07,15,16,-19.90
2021,12,07,15,17,-19.90
2021,12,07,15,18,-19.90
2021,12,07,15,19,-19.90
2021,12,07,15,20,-19.90
2021,12,07,15,21,-19.90
2021,12,07,15,22,-19.90
2021,12,07,15,23,-19.90
2021,12,07,15,24,-19.90
2021,12,07,15,25,-19.90
2021,12,07,15,26,-19.90
2021,12,07,15,27,-19.90
2021,12,07,15,28,-19.90
2021,12,07,15,29,-20.00
2021,12,07,15,30,-20.00
2021,12,07,15,31,-20.00
2021,12,07,15,32,-20.00
2021,12,07,15,33,-20.00
2021,12,07,15,34,-20.00
2021,12,07,15,35,-20.00
2021,12,07,15,36,-20.00
2021,12,07,15,37,-20.00
2021,12,07,15,38,-20.00
2021,12,07,15,39,-20.00
2021,12,07,15,40,-20.00
2021,12,07,15,41,-20.00
2021,12,07,15,42,-20.00
2021,12,07,15,43,-20.00
2021,12,07,15,44,-20.00
2021,12,07,15,45,-20.00
2021,12,07,15,46,-20.10
2021,12,07,15,47,-20.10
2021,12,07,15,48,-20.00
2021,12,07,15,49,-20.10
2021,12,07,15,50,-20.10
2021,12,07,15,51,-20.10
2021,12,07,15,52,-20.10
2021,12,07,15,53,-20.10
2021,12,07,15,54,-20.10
2021,12,07,15,55,-20.10
2021,12,07,15,56,-20.10
2021,12,07,15,57,-20.10
2021,12,07,15,58,-20.10
2021,12,07,15,59,-20.10
2021,12,07,16,00,-20.10
2021,12,07,16,01,-20.10
2021,12,07,16,02,-20.10
2021,12,07,16,03,-20.10
2021,12,07,16,04,-20.10
2021,12,07,16,05,-20.10
2021,12,07,16,06,-20.10
2021,12,07,16,07,-20.10
2021,12,07,16,08,-20.10
2021,12,07,16,09,-20.10
2021,12,07,16,10,-20.10
2021,12,07,16,11,-20.10
2021,12,07,16,12,-20.10
2021,12,07,16,13,-20.10
2021,12,07,16,14,-20.10
2021,12,07,16,15,-20.10
2021,12,07,16,16,-20.10
2021,12,07,16,17,-20.10
2021,12,07,16,18,-20.10
2021,12,07,16,19,-20.10
2021,12,07,16,20,-20.10
2021,12,07,16,21,-20.10
2021,12,07,16,22,-20.10
2021,12,07,16,23,-20.10
2021,12,07,16,24,-20.00
2021,12,07,16,25,-20.00
2021,12,07,16,26,-20.00
2021,12,07,16,27,-20.00
2021,12,07,16,28,-20.00
2021,12,07,16,29,-19.90
2021,12,07,16,30,-19.90
2021,12,07,16,31,-19.90
2021,12,07,16,32,-19.90
2021,12,07,16,33,-19.90
2021,12,07,16,34,-19.90
2021,12,07,16,35,-19.90
2021,12,07,16,36,-19.90